Regional Weather Roundup
Issued by NWS

Home | Current Version | Previous Version | Text Only | Print | Product List | Glossary Off
Versions: 1 2 3 4 5 6 7 8 9 10 11 12 13 14 15 16 17 18 19 20 21 22 23 24 25 26 27 28 29 30 31 32 33 34 35 36 37 38 39 40 41 42 43 44 45 46 47 48 49 50

000
ASUS43 KOAX 060010
RWRNE

WEATHER ROUNDUP FOR NEBRASKA
NATIONAL WEATHER SERVICE OMAHA NE
600 PM CST FRI FEB 05 2016

NOTES: SATELLITE DATA IS BEING USED TO AUGMENT CLOUD COVER ABOVE
       12000 FEET.
       "FAIR" INDICATES FEW OR NO CLOUDS BELOW 12,000 FEET WITH NO
       SIGNIFICANT WEATHER AND/OR OBSTRUCTIONS TO VISIBILITY.

  * THESE STATIONS DO NOT REPORT WEATHER SUCH AS RAIN...SNOW OR FOG.

NEZ001>004-019>022-054>056-060100-
NEBRASKA PANHANDLE

CITY           SKY/WX    TMP DP  RH WIND       PRES   REMARKS
SCOTTSBLUFF    CLEAR     31  17  56 W15       30.26F WCI  20
6HR MIN TEMP:  30; 6HR MAX TEMP:  34;

ALLIANCE       CLEAR     30  19  63 NW16      30.22S WCI  19
6HR MIN TEMP:  30; 6HR MAX TEMP:  34;

CHADRON        CLEAR     33  23  66 W15       30.23S WCI  23
6HR MIN TEMP:  33; 6HR MAX TEMP:  37;

KIMBALL        CLEAR     27  17  66 NW17      30.25S WCI  14
SIDNEY         CLEAR     27  18  69 NW17      30.25S WCI  14
6HR MIN TEMP:  27; 6HR MAX TEMP:  31;

$$

NEZ057>060-069>072-079>082-060100-
SOUTHWEST NEBRASKA

CITY           SKY/WX    TMP DP  RH WIND       PRES   REMARKS
NORTH PLATTE   CLEAR     35  23  61 NW15      30.24R WCI  25
6HR MIN TEMP:  33; 6HR MAX TEMP:  38;

IMPERIAL       CLEAR     32  21  64 NW12      30.25S WCI  23
6HR MIN TEMP:  32; 6HR MAX TEMP:  36;

LEXINGTON      CLOUDY    36  27  70 NW12      30.24R WCI  28
MCCOOK         PTCLDY    33  25  72 W9        30.25S WCI  25
6HR MIN TEMP:  33; 6HR MAX TEMP:  37;

OGALLALA       CLEAR     29  21  71 NW3       30.24S
$$

NEZ005>010-023>029-035>040-094-060100-
NORTH CENTRAL NEBRASKA

CITY           SKY/WX    TMP DP  RH WIND       PRES   REMARKS
VALENTINE      CLEAR     31  24  75 NW7       30.22R WCI  24
6HR MIN TEMP:  31; 6HR MAX TEMP:  35;

AINSWORTH      MOCLDY    33  26  75 NW10      30.21S WCI  24
BROKEN BOW     CLOUDY    35  26  69 NW10      30.22R WCI  27
6HR MIN TEMP:  35; 6HR MAX TEMP:  39;

O`NEILL        FLURRIES  34  31  88 NW14      30.21R WCI  25
ORD            CLOUDY    35  28  75 NW14      30.21R WCI  26
6HR MIN TEMP:  35; 6HR MAX TEMP:  39;

THEDFORD       CLEAR     33  26  75 NW9       30.22R WCI  25
$$

NEZ041-046>049-061>064-073>077-083>087-060100-
SOUTH CENTRAL NEBRASKA

CITY           SKY/WX    TMP DP  RH WIND       PRES   REMARKS
GRAND ISLAND   CLOUDY    36  29  75 W8        30.23R WCI  30
6HR MIN TEMP:  33; 6HR MAX TEMP:  38;

AURORA         CLOUDY    34  32  90 W7        30.22R WCI  28
HASTINGS       CLOUDY    35  29  78 W5        30.22R WCI  31
6HR MIN TEMP:  31; 6HR MAX TEMP:  37;

HEBRON         CLEAR     31  26  80 W5        30.24S WCI  26
HOLDREGE       CLOUDY    35  27  72 NW9       30.23S WCI  28
KEARNEY *      CLOUDY    36 -13  12 NW10      30.23R WCI  28
YORK           CLOUDY    34  32  93 SW6       30.22S WCI  29
$$

NEZ011>018-030>034-042>045-060100-
NORTHEAST NEBRASKA

CITY           SKY/WX    TMP DP  RH WIND       PRES   REMARKS
NORFOLK        CLOUDY    37  31  78 NW14      30.18R WCI  28
6HR MIN TEMP:  28; 6HR MAX TEMP:  38;

ALBION         CLOUDY    36  30  79 NW12G21   30.20S WCI  28
BLAIR          CLOUDY    31  29  92 S9        30.22S WCI  23
COLUMBUS *     MOCLDY    36  25  64 SW5       30.21S WCI  32
FREMONT        CLOUDY    31  28  88 CALM      30.22S
TEKAMAH        CLOUDY    29  26  89 S7        30.23S FOG     WCI  22
6HR MIN TEMP:  27; 6HR MAX TEMP:  31; 6HR PCP: TRACE;

WAYNE          CLOUDY    33  30  90 SW5       30.19S WCI  28
$$

NEZ050>053-065>068-078-088>093-060100-
SOUTHEAST NEBRASKA

CITY           SKY/WX    TMP DP  RH WIND       PRES   REMARKS
LINCOLN        CLOUDY    34  28  79 SW7       30.25S WCI  28
6HR MIN TEMP:  28; 6HR MAX TEMP:  35; 6HR PCP:  0.02;

OMAHA EPPLEY   CLOUDY    32  28  85 S8        30.25S FOG     WCI  25
6HR MIN TEMP:  28; 6HR MAX TEMP:  32; 6HR PCP:  0.04;

BEATRICE       CLOUDY    34  29  82 W7        30.24S WCI  28
FALLS CITY     CLOUDY    35  25  66 SE6       30.26F WCI  30
6HR MIN TEMP:  31; 6HR MAX TEMP:  37; 6HR PCP: TRACE;

NEBRASKA CITY  MOCLDY    31  31 100 CALM      30.25S
PLATTSMOUTH    CLOUDY    31  29  94 S7        30.25R FOG     WCI  24
$$

NEZ044-045-051>053-067-060100-
OMAHA AREA

CITY           SKY/WX    TMP DP  RH WIND       PRES   REMARKS
OMAHA EPPLEY   CLOUDY    32  28  85 S8        30.25S FOG     WCI  25
6HR MIN TEMP:  28; 6HR MAX TEMP:  32; 6HR PCP:  0.04;

BLAIR          CLOUDY    31  29  92 S9        30.22S WCI  23
FREMONT        CLOUDY    31  28  88 CALM      30.22S
MILLARD        CLOUDY    32  29  88 CALM      30.25S
OFFUTT AFB     MOCLDY    32  30  93 S5        30.25R WCI  27
PLATTSMOUTH    CLOUDY    31  29  94 S7        30.25R FOG     WCI  24
WAHOO          LGT SNOW  32  30  92 S5        30.23S WCI  27
$$



USA.gov is the U.S. government's official web portal to all federal, state and local government web resources and services.